| time (UTC) | temp C | wind direction | speed KPH | gust KPH | rain 1hr cm | rain 24hr cm | rain mn cm | humidity % | barometer mb |
| 20260505231256 | -5 | 326 | 0.0 | 6.4 | 0.00 | 0.00 | 0.00 | 73 | 1016.2 |
| 20260505231155 | -5 | 326 | 0.0 | 6.4 | 0.00 | 0.00 | 0.00 | 73 | 1016.2 |
| 20260505230655 | -5 | 305 | 3.2 | 6.4 | 0.00 | 0.00 | 0.00 | 73 | 1016.2 |
| 20260505230155 | -5 | 320 | 0.0 | 1.6 | 0.00 | 0.00 | 0.00 | 72 | 1016.2 |
| 20260505225655 | -5 | 307 | 0.0 | 1.6 | 0.00 | 0.00 | 0.00 | 72 | 1016.3 |
| 20260505225155 | -5 | 331 | 0.0 | 0.0 | 0.00 | 0.00 | 0.00 | 70 | 1016.2 |
| 20260505225056 | -5 | 331 | 0.0 | 0.0 | 0.00 | 0.00 | 0.00 | 70 | 1016.2 |
| 20260505224655 | -5 | 331 | 0.0 | 0.0 | 0.00 | 0.00 | 0.00 | 70 | 1016.2 |
| 20260505224155 | -5 | 331 | 0.0 | 0.0 | 0.00 | 0.00 | 0.00 | 69 | 1016.2 |
| 20260505223956 | -5 | 331 | 0.0 | 0.0 | 0.00 | 0.00 | 0.00 | 69 | 1016.2 |
| 20260505223655 | -5 | 331 | 0.0 | 0.0 | 0.00 | 0.00 | 0.00 | 68 | 1016.2 |
| 20260505223155 | -5 | 331 | 0.0 | 0.0 | 0.00 | 0.00 | 0.00 | 68 | 1016.1 |
| 20260505222856 | -4 | 331 | 0.0 | 0.0 | 0.00 | 0.00 | 0.00 | 68 | 1016.1 |
| 20260505222655 | -4 | 331 | 0.0 | 0.0 | 0.00 | 0.00 | 0.00 | 68 | 1016.1 |
| 20260505222155 | -4 | 331 | 0.0 | 0.0 | 0.00 | 0.00 | 0.00 | 68 | 1016.1 |
| 20260505221756 | -4 | 331 | 0.0 | 0.0 | 0.00 | 0.00 | 0.00 | 68 | 1016.2 |
| 20260505221655 | -4 | 331 | 0.0 | 0.0 | 0.00 | 0.00 | 0.00 | 68 | 1016.2 |
| 20260505221155 | -4 | 331 | 0.0 | 0.0 | 0.00 | 0.00 | 0.00 | 67 | 1016.2 |
| 20260505220836 | -4 | 331 | 0.0 | 0.0 | 0.00 | 0.00 | 0.00 | 67 | 1016.2 |
| 20260505220656 | -4 | 331 | 0.0 | 0.0 | 0.00 | 0.00 | 0.00 | 67 | 1016.2 |
| 20260505220155 | -4 | 331 | 0.0 | 0.0 | 0.00 | 0.00 | 0.00 | 67 | 1016.2 |
| 20260505215655 | -3 | 331 | 0.0 | 0.0 | 0.00 | 0.00 | 0.00 | 66 | 1016.2 |
| 20260505215556 | -3 | 331 | 0.0 | 0.0 | 0.00 | 0.00 | 0.00 | 66 | 1016.2 |
| 20260505215155 | -3 | 331 | 0.0 | 0.0 | 0.00 | 0.00 | 0.00 | 66 | 1016.2 |
| 20260505214655 | -3 | 331 | 0.0 | 3.2 | 0.00 | 0.00 | 0.00 | 66 | 1016.2 |
| 20260505214456 | -3 | 315 | 0.0 | 3.2 | 0.00 | 0.00 | 0.00 | 66 | 1016.2 |
| 20260505214155 | -3 | 257 | 0.0 | 6.4 | 0.00 | 0.00 | 0.00 | 66 | 1016.1 |
| 20260505213655 | -3 | 322 | 0.0 | 11.3 | 0.00 | 0.00 | 0.00 | 66 | 1016.1 |
| 20260505213356 | -3 | 344 | 1.6 | 9.7 | 0.00 | 0.00 | 0.00 | 67 | 1016.1 |
| 20260505213155 | -3 | 317 | 6.4 | 6.4 | 0.00 | 0.00 | 0.00 | 67 | 1016.1 |
| 20260505212655 | -3 | 345 | 0.0 | 4.8 | 0.00 | 0.00 | 0.00 | 68 | 1015.9 |
| 20260505212256 | -3 | 330 | 3.2 | 3.2 | 0.00 | 0.00 | 0.00 | 67 | 1016.1 |
| 20260505212155 | -3 | 313 | 0.0 | 0.0 | 0.00 | 0.00 | 0.00 | 67 | 1015.9 |
| 20260505211655 | -3 | 313 | 0.0 | 0.0 | 0.00 | 0.00 | 0.00 | 66 | 1015.9 |
| 20260505211155 | -3 | 313 | 0.0 | 0.0 | 0.00 | 0.00 | 0.00 | 66 | 1015.9 |
| 20260505210655 | -3 | 313 | 0.0 | 4.8 | 0.00 | 0.00 | 0.00 | 66 | 1015.9 |
| 20260505210155 | -3 | 300 | 0.0 | 6.4 | 0.00 | 0.00 | 0.00 | 66 | 1015.8 |
| 20260505210056 | -3 | 305 | 0.0 | 8.0 | 0.00 | 0.00 | 0.00 | 66 | 1015.8 |
| 20260505205655 | -3 | 302 | 3.2 | 11.3 | 0.00 | 0.00 | 0.00 | 66 | 1015.8 |
| 20260505205155 | -3 | 295 | 9.7 | 9.7 | 0.00 | 0.00 | 0.00 | 66 | 1015.7 |
| 20260505204956 | -3 | 281 | 1.6 | 8.0 | 0.00 | 0.00 | 0.00 | 66 | 1015.7 |
| 20260505204655 | -3 | 292 | 0.0 | 9.7 | 0.00 | 0.00 | 0.00 | 65 | 1015.8 |
| 20260505204155 | -3 | 295 | 9.7 | 11.3 | 0.00 | 0.00 | 0.00 | 65 | 1015.8 |
| 20260505203856 | -3 | 292 | 0.0 | 0.0 | 0.00 | 0.00 | 0.00 | 65 | 1015.8 |
| 20260505203655 | -3 | 292 | 0.0 | 0.0 | 0.00 | 0.00 | 0.00 | 65 | 1015.7 |
| 20260505203155 | -2 | 292 | 0.0 | 0.0 | 0.00 | 0.00 | 0.00 | 65 | 1015.8 |
| 20260505202756 | -2 | 292 | 0.0 | 8.0 | 0.00 | 0.00 | 0.00 | 65 | 1015.7 |
| 20260505202655 | -2 | 292 | 0.0 | 8.0 | 0.00 | 0.00 | 0.00 | 65 | 1015.7 |
| 20260505202155 | -2 | 258 | 4.8 | 6.4 | 0.00 | 0.00 | 0.00 | 65 | 1015.6 |
| 20260505201655 | -2 | 317 | 3.2 | 6.4 | 0.00 | 0.00 | 0.00 | 65 | 1015.6 |
| 20260505201155 | -2 | 329 | 1.6 | 6.4 | 0.00 | 0.00 | 0.00 | 65 | 1015.6 |
| 20260505200655 | -2 | 320 | 1.6 | 8.0 | 0.00 | 0.00 | 0.00 | 65 | 1015.5 |
| 20260505200556 | -2 | 274 | 3.2 | 8.0 | 0.00 | 0.00 | 0.00 | 65 | 1015.6 |
| 20260505200155 | -2 | 306 | 1.6 | 9.7 | 0.00 | 0.00 | 0.00 | 65 | 1015.5 |
| 20260505195655 | -2 | 286 | 1.6 | 11.3 | 0.00 | 0.00 | 0.00 | 64 | 1015.4 |
| 20260505195456 | -2 | 324 | 4.8 | 16.1 | 0.00 | 0.00 | 0.00 | 64 | 1015.4 |
| 20260505195155 | -2 | 326 | 4.8 | 16.1 | 0.00 | 0.00 | 0.00 | 64 | 1015.4 |
| 20260505194655 | -2 | 322 | 3.2 | 11.3 | 0.00 | 0.00 | 0.00 | 63 | 1015.3 |
| 20260505194356 | -2 | 329 | 3.2 | 11.3 | 0.00 | 0.00 | 0.00 | 63 | 1015.3 |
| 20260505194155 | -2 | 300 | 4.8 | 11.3 | 0.00 | 0.00 | 0.00 | 63 | 1015.2 |
| 20260505193655 | -2 | 285 | 6.4 | 12.9 | 0.00 | 0.00 | 0.00 | 62 | 1015.2 |
| 20260505193257 | -2 | 307 | 4.8 | 12.9 | 0.00 | 0.00 | 0.00 | 62 | 1015.2 |
| 20260505193155 | -2 | 307 | 8.0 | 12.9 | 0.00 | 0.00 | 0.00 | 62 | 1015.2 |
| 20260505192655 | -1 | 298 | 4.8 | 9.7 | 0.00 | 0.00 | 0.00 | 63 | 1015.2 |
| 20260505192155 | -1 | 320 | 3.2 | 11.3 | 0.00 | 0.00 | 0.00 | 62 | 1015.2 |
| 20260505191655 | -1 | 299 | 4.8 | 8.0 | 0.00 | 0.00 | 0.00 | 62 | 1015.0 |
| 20260505191155 | -1 | 299 | 6.4 | 12.9 | 0.00 | 0.00 | 0.00 | 62 | 1015.0 |
| 20260505191056 | -1 | 281 | 9.7 | 12.9 | 0.00 | 0.00 | 0.00 | 61 | 1015.0 |
| 20260505190655 | -1 | 299 | 4.8 | 12.9 | 0.00 | 0.00 | 0.00 | 61 | 1014.9 |
| 20260505190155 | 0 | 313 | 4.8 | 16.1 | 0.00 | 0.00 | 0.00 | 58 | 1014.9 |
| 20260505185956 | 0 | 300 | 9.7 | 16.1 | 0.00 | 0.00 | 0.00 | 58 | 1014.9 |
| 20260505185655 | 0 | 289 | 9.7 | 14.5 | 0.00 | 0.00 | 0.00 | 59 | 1014.8 |
| 20260505185155 | 0 | 291 | 8.0 | 14.5 | 0.00 | 0.00 | 0.00 | 59 | 1014.7 |
| 20260505184856 | 0 | 299 | 9.7 | 16.1 | 0.00 | 0.00 | 0.00 | 57 | 1014.8 |
| 20260505184655 | 0 | 302 | 11.3 | 16.1 | 0.00 | 0.00 | 0.00 | 58 | 1014.7 |
| 20260505184155 | 0 | 306 | 1.6 | 11.3 | 0.00 | 0.00 | 0.00 | 61 | 1014.7 |
| 20260505183756 | 0 | 326 | 8.0 | 11.3 | 0.00 | 0.00 | 0.00 | 62 | 1014.7 |
| 20260505183655 | 0 | 324 | 4.8 | 11.3 | 0.00 | 0.00 | 0.00 | 63 | 1014.7 |
| 20260505183155 | 0 | 309 | 4.8 | 9.7 | 0.00 | 0.00 | 0.00 | 64 | 1014.7 |
| 20260505182655 | -1 | 298 | 3.2 | 8.0 | 0.00 | 0.00 | 0.00 | 65 | 1014.7 |
| 20260505182155 | -1 | 298 | 0.0 | 11.3 | 0.00 | 0.00 | 0.00 | 65 | 1014.7 |
| 20260505181655 | -1 | 323 | 8.0 | 11.3 | 0.00 | 0.00 | 0.00 | 64 | 1014.6 |
| 20260505181556 | -1 | 278 | 8.0 | 12.9 | 0.00 | 0.00 | 0.00 | 63 | 1014.7 |
| 20260505181155 | 0 | 319 | 3.2 | 12.9 | 0.00 | 0.00 | 0.00 | 62 | 1014.7 |
| 20260505180655 | 0 | 293 | 1.6 | 9.7 | 0.00 | 0.00 | 0.00 | 61 | 1014.7 |
| 20260505180457 | 0 | 320 | 3.2 | 9.7 | 0.00 | 0.00 | 0.00 | 61 | 1014.7 |
| 20260505180155 | 0 | 286 | 6.4 | 14.5 | 0.00 | 0.00 | 0.00 | 61 | 1014.6 |
| 20260505175655 | 0 | 296 | 3.2 | 11.3 | 0.00 | 0.00 | 0.00 | 59 | 1014.6 |
| 20260505175357 | 0 | 322 | 8.0 | 8.0 | 0.00 | 0.00 | 0.00 | 59 | 1014.6 |
| 20260505175155 | 0 | 307 | 0.0 | 9.7 | 0.00 | 0.00 | 0.00 | 58 | 1014.6 |
| 20260505174655 | 0 | 307 | 8.0 | 16.1 | 0.00 | 0.00 | 0.00 | 57 | 1014.5 |
| 20260505174257 | 0 | 307 | 4.8 | 14.5 | 0.00 | 0.00 | 0.00 | 55 | 1014.5 |
| 20260505174156 | 0 | 324 | 4.8 | 16.1 | 0.00 | 0.00 | 0.00 | 55 | 1014.6 |
| 20260505173655 | 0 | 326 | 8.0 | 16.1 | 0.00 | 0.00 | 0.00 | 52 | 1014.6 |
| 20260505173156 | 0 | 255 | 12.9 | 17.7 | 0.00 | 0.00 | 0.00 | 52 | 1014.6 |
| 20260505172655 | 0 | 292 | 9.7 | 19.3 | 0.00 | 0.00 | 0.00 | 51 | 1014.6 |
| 20260505172156 | 0 | 309 | 6.4 | 17.7 | 0.00 | 0.00 | 0.00 | 51 | 1014.6 |
| 20260505172057 | 0 | 300 | 4.8 | 22.5 | 0.00 | 0.00 | 0.00 | 51 | 1014.6 |
| 20260505171656 | 0 | 300 | 8.0 | 22.5 | 0.00 | 0.00 | 0.00 | 48 | 1014.6 |
| 20260505171156 | 1 | 289 | 4.8 | 17.7 | 0.00 | 0.00 | 0.00 | 51 | 1014.6 |
| 20260505170957 | 0 | 299 | 4.8 | 11.3 | 0.00 | 0.00 | 0.00 | 51 | 1014.5 |
| 20260505170656 | 0 | 270 | 8.0 | 17.7 | 0.00 | 0.00 | 0.00 | 50 | 1014.6 |
| 20260505170156 | 0 | 310 | 3.2 | 14.5 | 0.00 | 0.00 | 0.00 | 50 | 1014.5 |
| 20260505165858 | 0 | 300 | 4.8 | 17.7 | 0.00 | 0.00 | 0.00 | 49 | 1014.5 |
| 20260505165656 | 0 | 275 | 6.4 | 17.7 | 0.00 | 0.00 | 0.00 | 48 | 1014.6 |
| 20260505165156 | 0 | 312 | 0.0 | 11.3 | 0.00 | 0.00 | 0.00 | 52 | 1014.5 |
| 20260505164757 | 0 | 8 | 0.0 | 16.1 | 0.00 | 0.00 | 0.00 | 52 | 1014.6 |
| 20260505164656 | 0 | 319 | 1.6 | 16.1 | 0.00 | 0.00 | 0.00 | 52 | 1014.7 |
| 20260505164156 | 0 | 316 | 9.7 | 12.9 | 0.00 | 0.00 | 0.00 | 52 | 1014.6 |
| 20260505163656 | 0 | 284 | 3.2 | 17.7 | 0.00 | 0.00 | 0.00 | 51 | 1014.7 |
| 20260505163156 | 0 | 307 | 3.2 | 14.5 | 0.00 | 0.00 | 0.00 | 50 | 1014.7 |
| 20260505162656 | 0 | 313 | 4.8 | 12.9 | 0.00 | 0.00 | 0.00 | 49 | 1014.5 |
| 20260505162557 | 0 | 312 | 4.8 | 12.9 | 0.00 | 0.00 | 0.00 | 50 | 1014.7 |
| 20260505162156 | 0 | 268 | 0.0 | 17.7 | 0.00 | 0.00 | 0.00 | 50 | 1014.7 |
| 20260505161656 | 0 | 330 | 1.6 | 12.9 | 0.00 | 0.00 | 0.00 | 47 | 1014.7 |
| 20260505161457 | 0 | 305 | 8.0 | 12.9 | 0.00 | 0.00 | 0.00 | 49 | 1014.7 |
| 20260505161156 | 0 | 303 | 3.2 | 14.5 | 0.00 | 0.00 | 0.00 | 48 | 1014.6 |
| 20260505160656 | 0 | 306 | 4.8 | 17.7 | 0.00 | 0.00 | 0.00 | 49 | 1014.6 |
| 20260505160357 | 0 | 322 | 9.7 | 17.7 | 0.00 | 0.00 | 0.00 | 48 | 1014.6 |
| 20260505160156 | 0 | 300 | 11.3 | 17.7 | 0.00 | 0.00 | 0.00 | 49 | 1014.6 |
| 20260505153156 | 2 | 313 | 4.8 | 16.1 | 0.00 | 0.00 | 0.00 | 45 | 1014.3 |
| 20260505153057 | 2 | 317 | 9.7 | 16.1 | 0.00 | 0.00 | 0.00 | 47 | 1014.4 |
| 20260505152656 | 2 | 336 | 6.4 | 22.5 | 0.00 | 0.00 | 0.00 | 47 | 1014.5 |
| 20260505152156 | 1 | 282 | 9.7 | 20.9 | 0.00 | 0.00 | 0.00 | 46 | 1014.5 |
| 20260505151957 | 1 | 320 | 8.0 | 20.9 | 0.00 | 0.00 | 0.00 | 46 | 1014.5 |
| 20260505151656 | 1 | 336 | 4.8 | 19.3 | 0.00 | 0.00 | 0.00 | 47 | 1014.4 |
| 20260505151156 | 1 | 284 | 16.1 | 20.9 | 0.00 | 0.00 | 0.00 | 45 | 1014.4 |
| 20260505150857 | 1 | 258 | 8.0 | 16.1 | 0.00 | 0.00 | 0.00 | 48 | 1014.4 |
| 20260505150656 | 1 | 270 | 6.4 | 14.5 | 0.00 | 0.00 | 0.00 | 51 | 1014.4 |
| 20260505150156 | 0 | 333 | 0.0 | 12.9 | 0.00 | 0.00 | 0.00 | 51 | 1014.3 |
| 20260505140257 | 1 | 300 | 4.8 | 12.9 | 0.00 | 0.00 | 0.00 | 46 | 1014.1 |
| 20260505140156 | 1 | 288 | 6.4 | 12.9 | 0.00 | 0.00 | 0.00 | 44 | 1014.3 |
| 20260505130156 | 0 | 299 | 4.8 | 16.1 | 0.00 | 0.00 | 0.00 | 42 | 1014.3 |
| 20260505124656 | 1 | 316 | 1.6 | 20.9 | 0.00 | 0.00 | 0.00 | 42 | 1014.1 |
| 20260505124557 | 1 | 317 | 0.0 | 20.9 | 0.00 | 0.00 | 0.00 | 41 | 1014.1 |
| 20260505124156 | 1 | 315 | 1.6 | 27.4 | 0.00 | 0.00 | 0.00 | 40 | 1014.1 |
| 20260505123656 | 1 | 337 | 9.7 | 20.9 | 0.00 | 0.00 | 0.00 | 42 | 1014.1 |
| 20260505123457 | 1 | 271 | 6.4 | 20.9 | 0.00 | 0.00 | 0.00 | 44 | 1014.1 |
| 20260505123156 | 0 | 271 | 3.2 | 24.1 | 0.00 | 0.00 | 0.00 | 41 | 1014.0 |
| 20260505122656 | 1 | 324 | 9.7 | 25.7 | 0.00 | 0.00 | 0.00 | 41 | 1014.0 |
| 20260505122357 | 1 | 316 | 14.5 | 25.7 | 0.00 | 0.00 | 0.00 | 43 | 1014.1 |
| 20260505122156 | 1 | 309 | 22.5 | 27.4 | 0.00 | 0.00 | 0.00 | 41 | 1014.1 |
| 20260505121656 | 1 | 309 | 0.0 | 24.1 | 0.00 | 0.00 | 0.00 | 42 | 1014.0 |
| 20260505121257 | 1 | 291 | 9.7 | 19.3 | 0.00 | 0.00 | 0.00 | 42 | 1014.0 |
| 20260505121156 | 1 | 293 | 14.5 | 19.3 | 0.00 | 0.00 | 0.00 | 44 | 1014.0 |
| 20260505120656 | 0 | 307 | 4.8 | 17.7 | 0.00 | 0.00 | 0.00 | 47 | 1013.9 |
| 20260505120156 | 0 | 288 | 9.7 | 20.9 | 0.00 | 0.00 | 0.00 | 44 | 1014.0 |
| 20260505115656 | 0 | 278 | 11.3 | 17.7 | 0.00 | 0.00 | 0.00 | 44 | 1014.0 |
| 20260505115156 | 0 | 253 | 12.9 | 19.3 | 0.00 | 0.00 | 0.00 | 45 | 1013.8 |
| 20260505115057 | 0 | 300 | 11.3 | 19.3 | 0.00 | 0.00 | 0.00 | 46 | 1013.9 |
| 20260505114656 | 1 | 316 | 4.8 | 17.7 | 0.00 | 0.00 | 0.00 | 40 | 1014.0 |
| 20260505114156 | 1 | 292 | 4.8 | 11.3 | 0.00 | 0.00 | 0.00 | 46 | 1013.8 |
| 20260505113957 | 1 | 334 | 6.4 | 11.3 | 0.00 | 0.00 | 0.00 | 46 | 1013.9 |
| 20260505113656 | 0 | 264 | 6.4 | 14.5 | 0.00 | 0.00 | 0.00 | 46 | 1013.9 |
| 20260505113156 | 1 | 299 | 3.2 | 25.7 | 0.00 | 0.00 | 0.00 | 44 | 1013.9 |
| 20260505112857 | 1 | 295 | 12.9 | 25.7 | 0.00 | 0.00 | 0.00 | 43 | 1013.9 |
| 20260505112656 | 1 | 288 | 4.8 | 11.3 | 0.00 | 0.00 | 0.00 | 45 | 1013.9 |
| 20260505112156 | 1 | 310 | 9.7 | 25.7 | 0.00 | 0.00 | 0.00 | 43 | 1014.0 |
| 20260505111757 | 1 | 300 | 11.3 | 20.9 | 0.00 | 0.00 | 0.00 | 46 | 1013.9 |
| 20260505111656 | 1 | 289 | 3.2 | 17.7 | 0.00 | 0.00 | 0.00 | 44 | 1013.9 |
| 20260505111156 | 0 | 286 | 9.7 | 24.1 | 0.00 | 0.00 | 0.00 | 46 | 1013.9 |
| 20260505110656 | 0 | 289 | 8.0 | 19.3 | 0.00 | 0.00 | 0.00 | 48 | 1013.9 |
| 20260505110156 | 0 | 303 | 8.0 | 17.7 | 0.00 | 0.00 | 0.00 | 45 | 1013.9 |
| 20260505102156 | 0 | 279 | 14.5 | 19.3 | 0.00 | 0.00 | 0.00 | 48 | 1013.7 |
| 20260505101656 | 0 | 307 | 4.8 | 16.1 | 0.00 | 0.00 | 0.00 | 49 | 1013.8 |
| 20260505101156 | 0 | 306 | 14.5 | 19.3 | 0.00 | 0.00 | 0.00 | 49 | 1013.8 |
| 20260505100656 | 0 | 306 | 19.3 | 19.3 | 0.00 | 0.00 | 0.00 | 47 | 1013.7 |
| 20260505100156 | 0 | 261 | 3.2 | 17.7 | 0.00 | 0.00 | 0.00 | 47 | 1013.6 |
| 20260505100057 | 0 | 303 | 9.7 | 17.7 | 0.00 | 0.00 | 0.00 | 47 | 1013.7 |
| 20260505095656 | 0 | 286 | 0.0 | 12.9 | 0.00 | 0.00 | 0.00 | 50 | 1013.6 |
| 20260505095156 | 0 | 293 | 4.8 | 25.7 | 0.00 | 0.00 | 0.00 | 48 | 1013.6 |
| 20260505094957 | 0 | 315 | 4.8 | 25.7 | 0.00 | 0.00 | 0.00 | 49 | 1013.5 |
| 20260505094656 | 0 | 319 | 6.4 | 20.9 | 0.00 | 0.00 | 0.00 | 46 | 1013.6 |
| 20260505094156 | 0 | 350 | 0.0 | 17.7 | 0.00 | 0.00 | 0.00 | 49 | 1013.6 |
| 20260505093857 | 0 | 295 | 3.2 | 19.3 | 0.00 | 0.00 | 0.00 | 49 | 1013.6 |
| 20260505093656 | 0 | 307 | 8.0 | 19.3 | 0.00 | 0.00 | 0.00 | 48 | 1013.6 |
| 20260505093156 | 0 | 333 | 6.4 | 14.5 | 0.00 | 0.00 | 0.00 | 48 | 1013.5 |
| 20260505092757 | 0 | 286 | 0.0 | 20.9 | 0.00 | 0.00 | 0.00 | 47 | 1013.6 |
| 20260505092656 | 0 | 358 | 3.2 | 27.4 | 0.00 | 0.00 | 0.00 | 45 | 1013.6 |
| 20260505092156 | 0 | 309 | 19.3 | 24.1 | 0.00 | 0.00 | 0.00 | 47 | 1013.6 |
| 20260505091656 | 0 | 340 | 9.7 | 19.3 | 0.00 | 0.00 | 0.00 | 46 | 1013.7 |
| 20260505091156 | 0 | 322 | 6.4 | 14.5 | 0.00 | 0.00 | 0.00 | 48 | 1013.6 |
| 20260505090656 | 0 | 330 | 4.8 | 16.1 | 0.00 | 0.00 | 0.00 | 47 | 1013.5 |
| 20260505090557 | 0 | 307 | 12.9 | 16.1 | 0.00 | 0.00 | 0.00 | 51 | 1013.5 |
| 20260505090156 | 0 | 344 | 0.0 | 12.9 | 0.00 | 0.00 | 0.00 | 50 | 1013.5 |
| 20260505085656 | 0 | 299 | 1.6 | 17.7 | 0.00 | 0.00 | 0.00 | 52 | 1013.5 |
| 20260505085458 | 0 | 300 | 17.7 | 17.7 | 0.00 | 0.00 | 0.00 | 52 | 1013.5 |
| 20260505085156 | 0 | 309 | 9.7 | 12.9 | 0.00 | 0.00 | 0.00 | 50 | 1013.5 |
| 20260505084656 | -1 | 316 | 11.3 | 17.7 | 0.00 | 0.00 | 0.00 | 51 | 1013.5 |
| 20260505084358 | -1 | 330 | 6.4 | 16.1 | 0.00 | 0.00 | 0.00 | 54 | 1013.5 |
| 20260505084156 | -1 | 307 | 6.4 | 16.1 | 0.00 | 0.00 | 0.00 | 53 | 1013.5 |
| 20260505083656 | -1 | 313 | 8.0 | 16.1 | 0.00 | 0.00 | 0.00 | 52 | 1013.4 |
| 20260505083257 | -1 | 330 | 9.7 | 17.7 | 0.00 | 0.00 | 0.00 | 54 | 1013.4 |
| 20260505083156 | -1 | 289 | 6.4 | 17.7 | 0.00 | 0.00 | 0.00 | 54 | 1013.4 |
| 20260505082656 | -1 | 295 | 6.4 | 19.3 | 0.00 | 0.00 | 0.00 | 53 | 1013.4 |
| 20260505082156 | -1 | 258 | 9.7 | 19.3 | 0.00 | 0.00 | 0.00 | 54 | 1013.4 |
| 20260505081656 | -1 | 317 | 12.9 | 22.5 | 0.00 | 0.00 | 0.00 | 55 | 1013.4 |
| 20260505081157 | -1 | 324 | 14.5 | 25.7 | 0.00 | 0.00 | 0.00 | 54 | 1013.4 |
| 20260505081058 | -1 | 306 | 22.5 | 24.1 | 0.00 | 0.00 | 0.00 | 54 | 1013.4 |
| 20260505080656 | -1 | 316 | 4.8 | 12.9 | 0.00 | 0.00 | 0.00 | 57 | 1013.4 |
| 20260505080157 | -1 | 317 | 9.7 | 20.9 | 0.00 | 0.00 | 0.00 | 56 | 1013.4 |
| 20260505075958 | -2 | 333 | 9.7 | 16.1 | 0.00 | 0.00 | 0.00 | 57 | 1013.4 |
| 20260505075657 | -2 | 300 | 9.7 | 17.7 | 0.00 | 0.00 | 0.00 | 58 | 1013.4 |
| 20260505075157 | -2 | 289 | 9.7 | 19.3 | 0.00 | 0.00 | 0.00 | 57 | 1013.4 |
| 20260505074858 | -2 | 299 | 17.7 | 20.9 | 0.00 | 0.00 | 0.00 | 58 | 1013.3 |
| 20260505074657 | -2 | 296 | 14.5 | 20.9 | 0.00 | 0.00 | 0.00 | 59 | 1013.3 |
| 20260505074157 | -2 | 268 | 11.3 | 19.3 | 0.00 | 0.00 | 0.00 | 60 | 1013.3 |
| 20260505073758 | -2 | 305 | 12.9 | 24.1 | 0.00 | 0.00 | 0.00 | 58 | 1013.4 |
| 20260505073657 | -2 | 319 | 11.3 | 24.1 | 0.00 | 0.00 | 0.00 | 59 | 1013.3 |
| 20260505073157 | -2 | 322 | 12.9 | 24.1 | 0.00 | 0.00 | 0.00 | 59 | 1013.4 |
| 20260505072657 | -2 | 307 | 14.5 | 30.6 | 0.00 | 0.00 | 0.00 | 60 | 1013.3 |
| 20260505072157 | -2 | 288 | 11.3 | 16.1 | 0.00 | 0.00 | 0.00 | 61 | 1013.3 |
| 20260505071657 | -2 | 327 | 9.7 | 19.3 | 0.00 | 0.00 | 0.00 | 62 | 1013.1 |
| 20260505071558 | -2 | 278 | 11.3 | 22.5 | 0.00 | 0.00 | 0.00 | 62 | 1013.1 |
| 20260505071157 | -2 | 309 | 12.9 | 22.5 | 0.00 | 0.00 | 0.00 | 61 | 1013.1 |
| 20260505070657 | -3 | 316 | 11.3 | 16.1 | 0.00 | 0.00 | 0.00 | 63 | 1013.0 |
| 20260505070458 | -3 | 292 | 8.0 | 12.9 | 0.00 | 0.00 | 0.00 | 65 | 1013.0 |
| 20260505070157 | -3 | 303 | 6.4 | 16.1 | 0.00 | 0.00 | 0.00 | 64 | 1013.0 |
| 20260505065657 | -3 | 306 | 12.9 | 17.7 | 0.00 | 0.00 | 0.00 | 64 | 1013.0 |
| 20260505065358 | -3 | 326 | 6.4 | 19.3 | 0.00 | 0.00 | 0.00 | 67 | 1013.0 |
| 20260505065157 | -3 | 323 | 9.7 | 19.3 | 0.00 | 0.00 | 0.00 | 65 | 1013.0 |
| 20260505064657 | -3 | 291 | 9.7 | 17.7 | 0.00 | 0.00 | 0.00 | 65 | 1013.0 |
| 20260505064258 | -3 | 326 | 4.8 | 16.1 | 0.00 | 0.00 | 0.00 | 65 | 1013.1 |
| 20260505064157 | -3 | 307 | 11.3 | 16.1 | 0.00 | 0.00 | 0.00 | 65 | 1013.0 |
| 20260505063657 | -3 | 317 | 4.8 | 14.5 | 0.00 | 0.00 | 0.00 | 66 | 1013.0 |
| 20260505063157 | -3 | 326 | 8.0 | 17.7 | 0.00 | 0.00 | 0.00 | 65 | 1013.1 |
| 20260505062657 | -3 | 277 | 1.6 | 11.3 | 0.00 | 0.00 | 0.00 | 67 | 1013.0 |
| 20260505062157 | -3 | 337 | 4.8 | 11.3 | 0.00 | 0.00 | 0.00 | 67 | 1013.0 |
| 20260505062058 | -3 | 286 | 1.6 | 12.9 | 0.00 | 0.00 | 0.00 | 67 | 1013.0 |
| 20260505061657 | -4 | 316 | 8.0 | 12.9 | 0.00 | 0.00 | 0.00 | 67 | 1013.0 |
| 20260505061157 | -4 | 288 | 6.4 | 14.5 | 0.00 | 0.00 | 0.00 | 67 | 1013.0 |
| 20260505060958 | -4 | 324 | 9.7 | 12.9 | 0.00 | 0.00 | 0.00 | 69 | 1013.0 |
| 20260505060657 | -4 | 303 | 4.8 | 9.7 | 0.00 | 0.00 | 0.00 | 70 | 1012.9 |
| 20260505060157 | -4 | 313 | 3.2 | 9.7 | 0.00 | 0.00 | 0.00 | 70 | 1013.0 |
| 20260505055858 | -4 | 310 | 3.2 | 9.7 | 0.00 | 0.00 | 0.00 | 70 | 1013.0 |
| 20260505055657 | -4 | 303 | 4.8 | 9.7 | 0.00 | 0.00 | 0.00 | 71 | 1013.0 |
| 20260505055157 | -4 | 303 | 4.8 | 11.3 | 0.00 | 0.00 | 0.00 | 71 | 1012.9 |
| 20260505054758 | -4 | 293 | 3.2 | 12.9 | 0.00 | 0.00 | 0.00 | 72 | 1013.0 |
| 20260505054657 | -4 | 320 | 1.6 | 12.9 | 0.00 | 0.00 | 0.00 | 72 | 1013.0 |
| 20260505054157 | -5 | 293 | 8.0 | 8.0 | 0.00 | 0.00 | 0.00 | 72 | 1013.0 |
| 20260505053657 | -5 | 315 | 3.2 | 8.0 | 0.00 | 0.00 | 0.00 | 73 | 1013.0 |
| 20260505053157 | -5 | 295 | 1.6 | 9.7 | 0.00 | 0.00 | 0.00 | 74 | 1012.9 |
| 20260505052657 | -5 | 295 | 6.4 | 12.9 | 0.00 | 0.00 | 0.00 | 74 | 1012.9 |
| 20260505052558 | -5 | 319 | 4.8 | 12.9 | 0.00 | 0.00 | 0.00 | 74 | 1012.9 |
| 20260505052157 | -5 | 279 | 0.0 | 8.0 | 0.00 | 0.00 | 0.00 | 75 | 1012.9 |
| 20260505051657 | -5 | 278 | 0.0 | 8.0 | 0.00 | 0.00 | 0.00 | 76 | 1012.9 |
| 20260505051458 | -5 | 296 | 1.6 | 8.0 | 0.00 | 0.00 | 0.00 | 76 | 1012.9 |
| 20260505051157 | -6 | 303 | 8.0 | 8.0 | 0.00 | 0.00 | 0.00 | 77 | 1012.9 |
| 20260505050657 | -6 | 278 | 0.0 | 8.0 | 0.00 | 0.00 | 0.00 | 77 | 1012.9 |
| 20260505050358 | -6 | 298 | 0.0 | 4.8 | 0.00 | 0.00 | 0.00 | 78 | 1012.9 |
| 20260505050157 | -6 | 291 | 0.0 | 6.4 | 0.00 | 0.00 | 0.00 | 78 | 1013.0 |
| 20260505041657 | -7 | 295 | 0.0 | 3.2 | 0.00 | 0.00 | 0.00 | 81 | 1012.6 |
| 20260505041157 | -7 | 285 | 3.2 | 4.8 | 0.00 | 0.00 | 0.00 | 81 | 1012.5 |
| 20260505040858 | -7 | 42 | 0.0 | 0.0 | 0.00 | 0.00 | 0.00 | 81 | 1012.6 |
| 20260505040657 | -7 | 42 | 0.0 | 0.0 | 0.00 | 0.00 | 0.00 | 81 | 1012.5 |
| 20260505040157 | -7 | 313 | 0.0 | 0.0 | 0.00 | 0.00 | 0.00 | 81 | 1012.5 |
| 20260505035758 | -7 | 313 | 0.0 | 0.0 | 0.00 | 0.00 | 0.00 | 81 | 1012.4 |
| 20260505035657 | -7 | 313 | 0.0 | 0.0 | 0.00 | 0.00 | 0.00 | 81 | 1012.4 |
| 20260505035157 | -7 | 313 | 0.0 | 0.0 | 0.00 | 0.00 | 0.00 | 80 | 1012.2 |
| 20260505034657 | -7 | 313 | 0.0 | 0.0 | 0.00 | 0.00 | 0.00 | 80 | 1012.1 |
| 20260505034157 | -7 | 313 | 0.0 | 0.0 | 0.00 | 0.00 | 0.00 | 80 | 1012.2 |
| 20260505033657 | -7 | 313 | 0.0 | 0.0 | 0.00 | 0.00 | 0.00 | 80 | 1012.1 |
| 20260505033558 | -7 | 313 | 0.0 | 0.0 | 0.00 | 0.00 | 0.00 | 80 | 1012.1 |
| 20260505033157 | -7 | 313 | 0.0 | 0.0 | 0.00 | 0.00 | 0.00 | 80 | 1012.2 |
| 20260505032657 | -7 | 313 | 0.0 | 0.0 | 0.00 | 0.00 | 0.00 | 80 | 1012.2 |
| 20260505032458 | -7 | 313 | 0.0 | 0.0 | 0.00 | 0.00 | 0.00 | 80 | 1012.4 |
| 20260505032157 | -7 | 313 | 0.0 | 0.0 | 0.00 | 0.00 | 0.00 | 80 | 1012.4 |
| 20260505031657 | -6 | 313 | 0.0 | 0.0 | 0.00 | 0.00 | 0.00 | 79 | 1012.2 |
| 20260505031358 | -6 | 313 | 0.0 | 0.0 | 0.00 | 0.00 | 0.00 | 80 | 1012.1 |
| 20260505031157 | -6 | 313 | 0.0 | 0.0 | 0.00 | 0.00 | 0.00 | 79 | 1012.1 |
| 20260505030657 | -6 | 313 | 0.0 | 6.4 | 0.00 | 0.00 | 0.00 | 80 | 1012.0 |
| 20260505030258 | -6 | 264 | 1.6 | 6.4 | 0.00 | 0.00 | 0.00 | 80 | 1012.1 |
| 20260505030157 | -6 | 288 | 1.6 | 6.4 | 0.00 | 0.00 | 0.00 | 80 | 1012.0 |
| 20260505025657 | -6 | 258 | 0.0 | 4.8 | 0.00 | 0.00 | 0.00 | 80 | 1012.0 |
| 20260505025157 | -6 | 300 | 0.0 | 4.8 | 0.00 | 0.00 | 0.00 | 80 | 1011.9 |
| 20260505024657 | -7 | 277 | 0.0 | 4.8 | 0.00 | 0.00 | 0.00 | 80 | 1011.9 |
| 20260505024157 | -7 | 282 | 3.2 | 4.8 | 0.00 | 0.00 | 0.00 | 80 | 1011.9 |
| 20260505024058 | -7 | 132 | 0.0 | 0.0 | 0.00 | 0.00 | 0.00 | 80 | 1012.0 |
| 20260505023657 | -7 | 132 | 0.0 | 3.2 | 0.00 | 0.00 | 0.00 | 80 | 1012.0 |
| 20260505023157 | -7 | 268 | 0.0 | 1.6 | 0.00 | 0.00 | 0.00 | 79 | 1011.9 |
| 20260505023000 | -7 | 268 | 0.0 | 3.2 | 0.00 | 0.00 | 0.00 | 79 | 1011.9 |
| 20260505022657 | -6 | 248 | 0.0 | 4.8 | 0.00 | 0.00 | 0.00 | 79 | 1011.9 |
| 20260505022157 | -6 | 229 | 3.2 | 6.4 | 0.00 | 0.00 | 0.00 | 79 | 1011.9 |
| 20260505021858 | -6 | 227 | 0.0 | 6.4 | 0.00 | 0.00 | 0.00 | 79 | 1011.8 |
| 20260505021657 | -6 | 227 | 0.0 | 6.4 | 0.00 | 0.00 | 0.00 | 79 | 1011.8 |
| 20260505021157 | -6 | 291 | 3.2 | 6.4 | 0.00 | 0.00 | 0.00 | 79 | 1011.8 |
| 20260505020758 | -6 | 241 | 6.4 | 6.4 | 0.00 | 0.00 | 0.00 | 79 | 1011.8 |
| 20260505020657 | -6 | 296 | 0.0 | 4.8 | 0.00 | 0.00 | 0.00 | 79 | 1011.8 |
| 20260505020157 | -6 | 279 | 3.2 | 4.8 | 0.00 | 0.00 | 0.00 | 79 | 1011.8 |
| 20260505015657 | -6 | 306 | 0.0 | 4.8 | 0.00 | 0.00 | 0.00 | 78 | 1011.8 |
| 20260505015157 | -6 | 271 | 0.0 | 4.8 | 0.00 | 0.00 | 0.00 | 78 | 1011.8 |
| 20260505014657 | -6 | 271 | 0.0 | 4.8 | 0.00 | 0.00 | 0.00 | 78 | 1011.8 |
| 20260505014558 | -6 | 271 | 0.0 | 4.8 | 0.00 | 0.00 | 0.00 | 78 | 1011.8 |
| 20260505014157 | -6 | 289 | 0.0 | 4.8 | 0.00 | 0.00 | 0.00 | 78 | 1011.8 |
| 20260505013657 | -6 | 298 | 0.0 | 1.6 | 0.00 | 0.00 | 0.00 | 78 | 1011.8 |
| 20260505013458 | -6 | 292 | 0.0 | 6.4 | 0.00 | 0.00 | 0.00 | 77 | 1011.8 |
| 20260505013157 | -6 | 292 | 0.0 | 6.4 | 0.00 | 0.00 | 0.00 | 78 | 1011.8 |
| 20260505012657 | -6 | 284 | 0.0 | 0.0 | 0.00 | 0.00 | 0.00 | 78 | 1011.8 |
| 20260505012358 | -6 | 284 | 0.0 | 0.0 | 0.00 | 0.00 | 0.00 | 77 | 1011.8 |
| 20260505012157 | -6 | 284 | 0.0 | 0.0 | 0.00 | 0.00 | 0.00 | 77 | 1011.8 |
| 20260505011657 | -6 | 284 | 0.0 | 0.0 | 0.00 | 0.00 | 0.00 | 77 | 1011.7 |
| 20260505011259 | -6 | 284 | 0.0 | 6.4 | 0.00 | 0.00 | 0.00 | 77 | 1011.6 |
| 20260505011157 | -6 | 284 | 0.0 | 6.4 | 0.00 | 0.00 | 0.00 | 77 | 1011.7 |
| 20260505010657 | -6 | 298 | 1.6 | 6.4 | 0.00 | 0.00 | 0.00 | 77 | 1011.6 |
| 20260505010157 | -6 | 260 | 0.0 | 4.8 | 0.00 | 0.00 | 0.00 | 77 | 1011.6 |
| 20260505005657 | -6 | 319 | 0.0 | 3.2 | 0.00 | 0.00 | 0.00 | 77 | 1011.5 |
| 20260505005157 | -6 | 296 | 0.0 | 8.0 | 0.00 | 0.00 | 0.00 | 77 | 1011.5 |
| 20260505005058 | -6 | 296 | 1.6 | 8.0 | 0.00 | 0.00 | 0.00 | 77 | 1011.5 |
| 20260505004657 | -6 | 292 | 6.4 | 6.4 | 0.00 | 0.00 | 0.00 | 77 | 1011.5 |
| 20260505004157 | -5 | 293 | 1.6 | 9.7 | 0.00 | 0.00 | 0.00 | 77 | 1011.5 |
| 20260505003958 | -6 | 277 | 3.2 | 9.7 | 0.00 | 0.00 | 0.00 | 76 | 1011.5 |
| 20260505003657 | -6 | 306 | 0.0 | 6.4 | 0.00 | 0.00 | 0.00 | 77 | 1011.5 |
| 20260505003157 | -5 | 313 | 0.0 | 3.2 | 0.00 | 0.00 | 0.00 | 77 | 1011.5 |
| 20260505002858 | -5 | 300 | 1.6 | 6.4 | 0.00 | 0.00 | 0.00 | 77 | 1011.5 |
| 20260505002657 | -5 | 299 | 0.0 | 6.4 | 0.00 | 0.00 | 0.00 | 77 | 1011.5 |
| 20260505002157 | -5 | 288 | 0.0 | 0.0 | 0.00 | 0.00 | 0.00 | 77 | 1011.5 |
| 20260505001758 | -5 | 288 | 0.0 | 4.8 | 0.00 | 0.00 | 0.00 | 77 | 1011.5 |
| 20260505001657 | -5 | 288 | 0.0 | 8.0 | 0.00 | 0.00 | 0.00 | 77 | 1011.5 |
| 20260505001157 | -5 | 326 | 0.0 | 8.0 | 0.00 | 0.00 | 0.00 | 78 | 1011.5 |
| 20260505000657 | -5 | 300 | 4.8 | 9.7 | 0.00 | 0.00 | 0.00 | 78 | 1011.3 |
| 20260505000157 | -5 | 300 | 4.8 | 11.3 | 0.00 | 0.00 | 0.00 | 78 | 1011.2 |
| 20260504235657 | -5 | 310 | 4.8 | 9.7 | 0.00 | 0.00 | 0.00 | 78 | 1011.3 |
| 20260504235558 | -5 | 267 | 0.0 | 9.7 | 0.00 | 0.00 | 0.00 | 77 | 1011.3 |
| 20260504235157 | -5 | 288 | 1.6 | 6.4 | 0.00 | 0.00 | 0.00 | 78 | 1011.3 |
| 20260504234657 | -5 | 299 | 0.0 | 4.8 | 0.00 | 0.00 | 0.00 | 77 | 1011.3 |
| 20260504234458 | -5 | 296 | 3.2 | 3.2 | 0.00 | 0.00 | 0.00 | 77 | 1011.3 |
| 20260504234157 | -5 | 289 | 1.6 | 11.3 | 0.00 | 0.00 | 0.00 | 77 | 1011.2 |
| 20260504233657 | -5 | 285 | 0.0 | 9.7 | 0.00 | 0.00 | 0.00 | 77 | 1011.2 |
| 20260504233358 | -5 | 271 | 1.6 | 11.3 | 0.00 | 0.00 | 0.00 | 77 | 1011.1 |
| 20260504233157 | -5 | 262 | 3.2 | 12.9 | 0.00 | 0.00 | 0.00 | 77 | 1011.1 |
| 20260504232657 | -5 | 295 | 1.6 | 12.9 | 0.00 | 0.00 | 0.00 | 77 | 1011.1 |
| 20260504232259 | -5 | 330 | 6.4 | 12.9 | 0.00 | 0.00 | 0.00 | 77 | 1011.0 |
| 20260504232157 | -5 | 343 | 4.8 | 9.7 | 0.00 | 0.00 | 0.00 | 77 | 1011.1 |
| 20260504231657 | -5 | 293 | 1.6 | 8.0 | 0.00 | 0.00 | 0.00 | 78 | 1010.9 |